Location: Albany
(35.0170°S, 117.8920°E)
Time: 00:01:59
(UTC+08:00)

S-56A Canister/Altair - Pass Details

Date: 20 June 2021
Orbit: 632 x 2501 km, 38.9° (Epoch: 24 July)

Event Time Altitude Azimuth Distance (km) Brightness Sun altitude
Rises 17:12:28 0° 281° (W) 5,962 13.9 -2.4°
Reaches altitude 10° 17:16:12 10° 279° (W) 5,069 13.3 -3.1°
Maximum altitude 17:31:31 80° 192° (SSW) 2,486 10.1 -5.9°
Drops below altitude 10° 17:45:06 10° 103° (ESE) 4,552 10.8 -8.4°
Enters shadow 17:45:29 - 103° (ESE) 4,649 10.8 -8.5°
